Orbital Elements at Epoch 2459200.5 (2020-Dec-17.0) TDB
Reference: JPL 15 (heliocentric ecliptic J2000)
Element | Value | Uncertainty (1-sigma) | Units |
e | .1930994365747664 | 5.2954e-08 | |
a | 2.380242366529843 | 1.6965e-08 | au |
q | 1.920618906641541 | 1.2618e-07 | au |
i | 1.430830659481996 | 5.246e-06 | deg |
node | 302.6079355414013 | 0.00028001 | deg |
peri | 15.83576189803538 | 0.00028139 | deg |
M | 311.3376497817861 | 3.4904e-05 | deg |
tp | 2459381.809590761240 (2021-Jun-16.30959076) | 0.00013134 | TDB |
period | 1341.3131996575 3.67 | 1.434e-05 3.926e-08 | d yr |
n | .2683936906696548 | 2.8694e-09 | deg/d |
Q | 2.839865826418144 | 2.0241e-08 | au |
|
| | Orbit Determination Parameters
Additional Information
|